Search your local weather  

 

Hazardous Weather Conditions

No active alerts for PHOENIX, ARIZONA

Current Conditions: PHOENIX, ARIZONA

Fair


46.0 F

Last Updated on Jan 26 2020, 4:53 am MST
Humidity: 77%
Wind Speed: N 0.0 mph
Barometer 30.10 in
Dewpoint: 39.0 F
Visibility: 10.00 mi
Precip: --
Heat Index: NA
Wind Chill: NA
Current conditions at:

Phoenix, Phoenix-Deer Valley Municipal Airport, AZ (KDVT)

Lat: 33.69026 Lon: -112.06618

Local Radar Image active severe weather and emergency alerts image image weather storm and storm spotter reports image weather observation monitoring service image
Local
Radar
Active
Alerts
Storm Reports Weather
Monitoring

5 Day Forecast for PHOENIX, ARIZONA (85003)

Sunday

Mostly Sunny

High 72 °F
Sunday
Night
Partly Cloudy

Low 50 °F
Monday

Mostly Sunny

High 72 °F
Monday
Night
Clear

Low 46 °F
Tuesday

Sunny

High 71 °F
Tuesday
Night
Mostly Clear

Low 46 °F
Wednesday

Mostly Sunny

High 71 °F
Wednesday
Night
Mostly Clear

Low 46 °F
Thursday

Mostly Sunny

High 70 °F

Sign-up For Email & Text Message Weather Alert Notification Services



Advertise Here

Observation History for PHOENIX, ARIZONA


Time Wind
(mph)
Vis
(mi)
Weather Precip (in) Temperature (F) Relative
Humidity
Wind
Chill
(F)
Heat
Index
(F)
Pressure
Air Dwpt altimeter
(in)
sea level
(mb)
4:53 am MST N 0.0 10.00 Fair -- 46.0 39.0 77% NA NA 30.10 1018.3
3:53 am MST N 4.6 10.00 Fair -- 47.0 39.0 74% 45 NA 30.11 1018.7
2:53 am MST NE 4.6 10.00 Fair -- 51.0 37.9 61% 50 NA 30.11 1018.6
1:53 am MST N 0.0 10.00 Fair -- 51.0 39.0 64% NA NA 30.11 1018.4
12:53 am MST NE 5.8 10.00 Fair -- 53.0 39.0 59% 51 NA 30.10 1018.2
11:53 pm MST NE 9.2 10.00 Fair -- 54.0 39.9 59% 51 NA 30.10 1018.3
10:53 pm MST NE 8.1 10.00 Fair -- 55.0 41.0 59% 53 NA 30.10 1018.1
9:53 pm MST N 0.0 10.00 Fair -- 52.0 42.1 69% NA NA 30.08 1017.9
8:53 pm MST NE 3.5 10.00 Fair -- 56.0 41.0 57% NA NA 30.08 1017.6
7:53 pm MST N 0.0 10.00 Fair -- 56.0 42.1 60% NA NA 30.06 1017.3
6:53 pm MST N 0.0 10.00 Fair -- 62.0 39.9 44% NA NA 30.05 1016.6
5:53 pm MST W 4.6 10.00 Fair -- 67.0 37.0 33% NA NA 30.04 1016.1
4:53 pm MST NW 4.6 10.00 Fair -- 70.0 37.0 30% NA NA 30.03 1015.9
3:53 pm MST N 0.0 10.00 Fair -- 68.0 37.0 32% NA NA 30.03 1015.7
2:53 pm MST S 5.8 10.00 Fair -- 68.0 37.9 33% NA NA 30.03 1015.7
1:53 pm MST S 4.6 10.00 Fair -- 67.0 39.9 37% NA NA 30.03 1015.9
12:53 pm MST 3.5 10.00 Fair -- 65.0 39.0 39% NA NA 30.07 1017.1
11:53 am MST SW 4.6 10.00 Fair -- 63.0 39.0 41% 64 NA 30.09 1018.1
10:53 am MST SW 3.5 10.00 Fair -- 61.0 39.9 46% NA NA 30.10 1018.3
9:53 am MST N 0.0 10.00 Fair -- 57.0 39.0 51% NA NA 30.08 1017.7
8:53 am MST N 5.8 10.00 Fair -- 52.0 37.9 59% 50 NA 30.07 1017.5
7:53 am MST N 4.6 10.00 Fair -- 49.0 37.0 64% 47 NA 30.05 1016.9
6:53 am MST NE 10.4 10.00 Fair -- 50.0 37.0 61% 46 NA 30.04 1016.2
5:53 am MST NE 9.2 10.00 Fair -- 49.0 37.0 64% 45 NA 30.02 1015.6

Regional Weather Observation

Glendale, Glendale Municipal Airport, AZ (KGEU)

A Few Clouds
63.0 F

Luke Air Force Base / Phoenix, AZ (KLUF)

Fair
45.0 F

Phoenix, Phoenix Sky Harbor International Airport, AZ (KPHX)

Fair
50.0 F

Goodyear Municipal, AZ (KGYR)

A Few Clouds
57.0 F

Buckeye Municipal Airport, AZ (KBXK)

NULL
41.0 F

Scottsdale Airport, AZ (KSDL)

Fair
48.0 F

Advertise Here


Advertise Here